1998-067VH

Last updated on Thu Apr 27 2023 00:02:04 GMT+0000 (Coordinated Universal Time)

1 56316U 98067VH 23116.42482905 -.00000466 00000+0 00000+0 0 9993 2 56316 51.6347 225.0472 0007977 234.2979 163.3322 15.50947669 335
UTC large
Height (km)
Speed (km/s)
/
Latitude / Longitude
Inclination (degrees)
Orbital Period (minutes)
Azimuth
Elevation
Range (km)
Doppler Factor

Next 0 passes for location: London (51.5072 / 0.1276)

Sorry there are no passes over London.